{"data":{"norad_id":47817,"intl_designator":"2021-018AG","name":"STARLINK-2400","alt_names":[],"object_type":"PAYLOAD","status":"ACTIVE","operator":null,"country":"US","launch_date":"2021-03-11","launch_site_code":"AFETR","launch_vehicle":null,"mission":null,"orbit_class":"UNKNOWN","rcs_meters":null,"size_class":null,"mass_kg":null,"dimensions":null,"purposes":["comms"],"wikipedia_slug":null,"has_3d_model":false,"image_url":null,"decayed_at":null,"tle_current":{"epoch":"2026-09-20T03:47:07.996416Z","epoch_age_seconds":51600,"freshness":"FRESH","line1":"1 47817U 21018AG  26263.15773144 -.00000384  00000+0 -60783-6 0  9996","line2":"2 47817  53.1605  58.1088 0001139  89.3107 270.8025 15.31702002306511","mean_motion":15.31702002,"eccentricity":0.0001139,"inclination_deg":53.1605,"raan_deg":58.1088,"arg_perigee_deg":89.3107,"mean_anomaly_deg":270.8025,"bstar":-6.0783e-7,"rev_number":30651,"period_min":94.013065081833,"perigee_km":469.95394096431,"apogee_km":471.51411378434,"semimajor_km":6848.8710273743,"source":"CELESTRAK","updated_at":"2026-09-20T09:00:38.749185Z"}}}